Terminal Aerodrome Forecast
Issued by NWS

Current Version | Previous Version | Graphics & Text | Print | Product List | Glossary On
Versions: 1 2 3 4 5 6 7 8 9 10 11 12 13 14 15 16 17 18 19 20 21
000
FTUS41 KILN 310532
TAFLUK
TAF
KLUK 310532Z 3106/0106 00000KT P6SM SKC
     FM310900 00000KT 4SM BR SKC
     FM311300 26006KT P6SM SKC
     FM311900 28008KT P6SM SCT050
     FM010300 26004KT P6SM FEW100=

USA.gov is the U.S. government's official web portal to all federal, state and local government web resources and services.